Location: Houston
(29.7630°N, 95.3630°W)
Time: 03:06:33
(UTC-06:00)

ISS - All Passes

Search period start: 18 December 2017 00:00
Search period end: 28 December 2017 00:00
Orbit: 402 x 406 km, 51.6° (Epoch: 18 December)

Date Brightness Start Highest point End Pass type
(mag) Time Alt. Az. Time Alt. Az. Time Alt. Az.
18 Dec - 09:34:36 10° SW 09:37:51 80° NW 09:41:08 10° NE daylight
18 Dec - 17:43:21 10° NW 17:46:38 78° NE 17:49:54 10° SE visible
19 Dec - 08:42:33 10° SSW 08:45:39 40° SE 08:48:45 10° ENE daylight
19 Dec - 10:20:23 10° WNW 10:22:15 14° NW 10:24:09 10° N daylight
19 Dec - 16:51:20 10° NNW 16:54:20 33° NE 16:57:20 10° ESE daylight
19 Dec - 18:28:48 10° W 18:30:34 14° SW 18:32:19 10° SSW visible
20 Dec - 07:51:14 10° S 07:53:31 18° SE 07:55:49 10° E daylight
20 Dec - 09:27:00 10° W 09:29:49 26° NW 09:32:39 10° NNE daylight
20 Dec - 15:59:39 10° N 16:01:56 17° NE 16:04:13 10° E daylight
20 Dec - 17:35:31 10° WNW 17:38:26 30° SW 17:41:22 10° SSE daylight
21 Dec - 08:34:15 10° SW 08:37:28 57° NW 08:40:43 10° NE daylight
21 Dec - 16:42:58 10° NW 16:46:14 77° SW 16:49:30 10° SE daylight
22 Dec - 07:42:00 10° SSW 07:45:12 56° SE 07:48:26 10° NE daylight
22 Dec - 09:20:40 10° WNW 09:21:55 12° NW 09:23:10 10° NNW daylight
22 Dec - 15:50:47 10° NNW 15:53:56 43° NE 15:57:05 10° ESE daylight
22 Dec - 17:29:31 10° WSW 17:30:03 10° SW 17:30:35 10° SW daylight
23 Dec - 06:50:21 10° S 06:53:00 23° SE 06:55:42 10° ENE daylight
23 Dec - 08:26:51 10° W 08:29:25 21° NW 08:32:00 10° NNE daylight
23 Dec - 14:58:56 10° NNW 15:01:32 21° NE 15:04:08 10° E daylight
23 Dec - 16:35:16 10° WNW 16:37:55 23° SW 16:40:35 10° S daylight
24 Dec - 06:00:11 10° SE 06:00:53 11° SE 06:01:34 10° ESE visible
24 Dec - 07:33:52 10° WSW 07:37:00 42° NW 07:40:08 10° NNE daylight
24 Dec - 14:07:42 10° N 14:09:01 12° NE 14:10:20 10° ENE daylight
24 Dec - 15:42:30 10° NW 15:45:43 55° SW 15:48:54 10° SSE daylight
25 Dec - 06:41:25 10° SW 06:44:40 78° SE 06:47:56 10° NE visible
25 Dec - 14:50:10 10° NW 14:53:24 59° NE 14:56:38 10° SE daylight
26 Dec - 05:49:29 10° SSW 05:52:24 31° SE 05:55:20 10° ENE visible
26 Dec - 07:26:40 10° W 07:28:54 17° NW 07:31:09 10° N daylight
26 Dec - 13:58:09 10° NNW 14:01:00 27° NE 14:03:50 10° E daylight
26 Dec - 15:35:01 10° W 15:37:17 17° SW 15:39:33 10° S daylight
27 Dec - 04:58:25 10° SSE 05:00:12 14° SE 05:01:59 10° E visible
27 Dec - 06:33:26 10° WSW 06:36:25 32° NW 06:39:25 10° NNE visible
27 Dec - 13:06:34 10° N 13:08:28 14° NE 13:10:22 10° ENE daylight
27 Dec - 14:41:58 10° WNW 14:45:04 40° SW 14:48:09 10° SSE daylight
